Time,TemperatureF,DewpointF,PressureIn,WindDirection,WindDirectionDegrees,WindSpeedMPH,WindSpeedGustMPH,Humidity,HourlyPrecipIn,Conditions,Clouds,dailyrainin,SolarRadiationWatts/m^2,SoftwareType,DateUTC
2013-01-06 14:33:00,48.0,0.0,-100.00,SE,146,3.0,7.0,13,-99.99,,,0.00,444.000000,,2013-01-06 21:33:00,
2013-01-06 15:22:00,43.0,2.0,-100.00,SSE,165,3.0,9.0,18,0.00,,,0.00,258.000000,,2013-01-06 22:22:00,
2013-01-06 15:33:00,43.0,2.0,-100.00,SSE,165,3.0,9.0,18,0.00,,,0.00,258.000000,,2013-01-06 22:33:00,
2013-01-06 15:43:00,43.0,2.0,-100.00,SSE,165,3.0,9.0,18,0.00,,,0.00,258.000000,,2013-01-06 22:43:00,
2013-01-06 15:52:00,43.0,2.0,-100.00,SSE,165,3.0,9.0,18,0.00,,,0.00,258.000000,,2013-01-06 22:52:00,
2013-01-06 16:22:00,41.0,2.0,-100.00,SE,128,0.0,4.0,19,0.00,,,0.00,134.000000,,2013-01-06 23:22:00,
2013-01-06 16:32:00,41.0,2.0,-100.00,SE,128,0.0,4.0,19,0.00,,,0.00,134.000000,,2013-01-06 23:32:00,
2013-01-06 16:42:00,41.0,2.0,-100.00,SE,128,0.0,4.0,19,0.00,,,0.00,134.000000,,2013-01-06 23:42:00,
2013-01-06 16:52:00,41.0,2.0,-100.00,SE,128,0.0,4.0,19,0.00,,,0.00,134.000000,,2013-01-06 23:52:00,
2013-01-06 17:22:00,37.0,2.0,-100.00,NE,36,3.0,5.0,22,0.00,,,0.00,43.000000,,2013-01-07 00:22:00,
2013-01-06 17:32:00,37.0,2.0,-100.00,NE,36,3.0,5.0,22,0.00,,,0.00,43.000000,,2013-01-07 00:32:00,
2013-01-06 17:42:00,37.0,2.0,-100.00,NE,36,3.0,5.0,22,0.00,,,0.00,43.000000,,2013-01-07 00:42:00,
2013-01-06 17:52:00,37.0,2.0,-100.00,NE,36,3.0,5.0,22,0.00,,,0.00,43.000000,,2013-01-07 00:52:00,
2013-01-06 18:22:00,32.0,5.0,-100.00,NNE,16,6.0,7.0,31,0.00,,,0.00,2.000000,,2013-01-07 01:22:00,
2013-01-06 18:32:00,32.0,5.0,-100.00,NNE,16,6.0,7.0,31,0.00,,,0.00,2.000000,,2013-01-07 01:32:00,
2013-01-06 18:42:00,32.0,5.0,-100.00,NNE,16,6.0,7.0,31,0.00,,,0.00,2.000000,,2013-01-07 01:42:00,
2013-01-06 18:52:00,32.0,5.0,-100.00,NNE,16,6.0,7.0,31,0.00,,,0.00,2.000000,,2013-01-07 01:52:00,
2013-01-06 19:22:00,33.0,3.0,-100.00,NNE,14,5.0,7.0,27,0.00,,,0.00,0.000000,,2013-01-07 02:22:00,
2013-01-06 19:32:00,33.0,3.0,-100.00,NNE,14,5.0,7.0,27,0.00,,,0.00,0.000000,,2013-01-07 02:32:00,
2013-01-06 19:42:00,33.0,3.0,-100.00,NNE,14,5.0,7.0,27,0.00,,,0.00,0.000000,,2013-01-07 02:42:00,
2013-01-06 19:52:00,33.0,3.0,-100.00,NNE,14,5.0,7.0,27,0.00,,,0.00,0.000000,,2013-01-07 02:52:00,
2013-01-06 20:22:00,33.0,3.0,-100.00,NNE,13,4.0,6.0,28,0.00,,,0.00,0.000000,,2013-01-07 03:22:00,
2013-01-06 20:32:00,33.0,3.0,-100.00,NNE,13,4.0,6.0,28,0.00,,,0.00,0.000000,,2013-01-07 03:32:00,
2013-01-06 20:42:00,33.0,3.0,-100.00,NNE,13,4.0,6.0,28,0.00,,,0.00,0.000000,,2013-01-07 03:42:00,
2013-01-06 20:52:00,33.0,3.0,-100.00,NNE,13,4.0,6.0,28,0.00,,,0.00,0.000000,,2013-01-07 03:52:00,
2013-01-06 21:12:00,31.0,2.0,-100.00,ENE,70,3.0,6.0,28,0.00,,,0.00,0.000000,,2013-01-07 04:12:00,
2013-01-06 21:22:00,31.0,2.0,-100.00,ENE,70,3.0,6.0,28,0.00,,,0.00,0.000000,,2013-01-07 04:22:00,
2013-01-06 21:32:00,31.0,2.0,-100.00,ENE,70,3.0,6.0,28,0.00,,,0.00,0.000000,,2013-01-07 04:32:00,
2013-01-06 21:42:00,31.0,2.0,-100.00,ENE,70,3.0,6.0,28,0.00,,,0.00,0.000000,,2013-01-07 04:42:00,
2013-01-06 21:52:00,31.0,2.0,-100.00,ENE,70,3.0,6.0,28,0.00,,,0.00,0.000000,,2013-01-07 04:52:00,
2013-01-06 22:22:00,32.0,3.0,-100.00,NE,43,2.0,8.0,29,0.00,,,0.00,0.000000,,2013-01-07 05:22:00,
2013-01-06 22:32:00,32.0,3.0,-100.00,NE,43,2.0,8.0,29,0.00,,,0.00,0.000000,,2013-01-07 05:32:00,
2013-01-06 22:42:00,32.0,3.0,-100.00,NE,43,2.0,8.0,29,0.00,,,0.00,0.000000,,2013-01-07 05:42:00,
2013-01-06 22:52:00,32.0,3.0,-100.00,NE,43,2.0,8.0,29,0.00,,,0.00,0.000000,,2013-01-07 05:52:00,
2013-01-06 23:22:00,28.0,7.0,-100.00,NNW,343,3.0,6.0,40,0.00,,,0.00,0.000000,,2013-01-07 06:22:00,
2013-01-06 23:32:00,28.0,7.0,-100.00,NNW,343,3.0,6.0,40,0.00,,,0.00,0.000000,,2013-01-07 06:32:00,
2013-01-06 23:42:00,28.0,7.0,-100.00,NNW,343,3.0,6.0,40,0.00,,,0.00,0.000000,,2013-01-07 06:42:00,
2013-01-06 23:52:00,28.0,7.0,-100.00,NNW,343,3.0,6.0,40,0.00,,,0.00,0.000000,,2013-01-07 06:52:00,